User: anonymous   Login
Location: Newark
(43.4306°N, 0.3089°E)
Time: 13:36:48
(UTC+00:00)
Language:

SR - Orbit

View from above orbital plane
View from above orbital plane
View from above satellite
View from above satellite

Ground track
Ground track

The orbit data is extracted from the following two-line orbital elements,

1    46U 60007B   19234.20093868 -.00000046 +00000-0 +14081-4 0  9997
2    46 066.6907 137.8056 0211111 352.9146 006.8987 14.49239293095595
Epoch (UTC): 22 August 2019 04:49:21
Eccentricity: 0.0211111
inclination: 66.6907°
perigee height: 578 km
apogee height: 878 km
right ascension of ascending node: 137.8056°
argument of perigee: 352.9146°
revolutions per day: 14.49239293
mean anomaly at epoch: 6.8987°
orbit number at epoch: 9559

The dashed part of the orbit path shows where the satellite is in the earth's shadow,  

DLR